Location: Bidwell Hollow
(37.7387°N, 90.1707°W)
Time: 00:38:05
(UTC+00:00)

Tiros 1 despin weight - All Passes

Search period start: 14 May 2026 00:00
Search period end: 24 May 2026 00:00
Orbit: 555 x 591 km, 48.2° (Epoch: 12 May)

Date Brightness Start Highest point End Pass type
(mag) Time Alt. Az. Time Alt. Az. Time Alt. Az.
14 May - 10:22:10 10° SSW 10:26:07 38° SE 10:30:03 10° ENE visible
14 May - 12:02:37 10° W 12:06:38 41° NNW 12:10:37 10° NE daylight
14 May - 13:44:49 10° NW 13:47:58 20° N 13:51:06 10° NE daylight
14 May - 15:26:03 10° NW 15:29:31 24° NNE 15:32:59 10° ENE daylight
14 May - 17:06:19 10° NW 17:10:31 79° NE 17:14:42 10° ESE daylight
14 May - 18:47:58 10° W 18:50:36 16° SW 18:53:15 10° S daylight
15 May - 10:23:39 10° SW 10:27:51 62° SE 10:32:01 10° ENE visible
15 May - 12:04:47 10° W 12:08:35 31° NNW 12:12:22 10° NE daylight
15 May - 13:46:58 10° NW 13:50:03 19° N 13:53:07 10° NE daylight
15 May - 15:27:49 10° NW 15:31:32 30° NNE 15:35:15 10° E daylight
15 May - 17:08:09 10° WNW 17:12:19 67° SW 17:16:29 10° SE daylight
16 May - 08:47:04 10° SSE 08:49:34 15° SE 08:52:03 10° E visible
16 May - 10:25:22 10° WSW 10:29:38 86° NNW 10:33:52 10° NE daylight
16 May - 12:07:02 10° WNW 12:10:35 25° NNW 12:14:08 10° NE daylight
16 May - 13:49:01 10° NW 13:52:08 20° N 13:55:15 10° NE daylight
16 May - 15:29:33 10° NW 15:33:30 38° NNE 15:37:26 10° E daylight
16 May - 17:10:06 10° WNW 17:14:03 42° SW 17:18:00 10° SSE daylight
17 May - 08:47:42 10° S 08:51:11 24° SE 08:54:38 10° E visible
17 May - 10:27:16 10° WSW 10:31:29 58° NNW 10:35:39 10° NE daylight
17 May - 12:09:17 10° WNW 12:12:38 22° N 12:15:57 10° NE daylight
17 May - 13:50:57 10° NW 13:54:13 21° N 13:57:28 10° ENE daylight
17 May - 15:31:17 10° NW 15:35:25 53° NNE 15:39:31 10° ESE daylight
17 May - 17:12:14 10° WNW 17:15:44 26° SW 17:19:14 10° SSE daylight
18 May - 08:48:52 10° SSW 08:52:51 38° SE 08:56:48 10° ENE visible
18 May - 10:29:19 10° W 10:33:21 41° NNW 10:37:23 10° NE daylight
18 May - 12:11:31 10° NW 12:14:41 20° N 12:17:51 10° NE daylight
18 May - 13:52:46 10° NW 13:56:15 24° NNE 13:59:43 10° ENE daylight
18 May - 15:33:03 10° NW 15:37:15 79° NNE 15:41:27 10° ESE daylight
18 May - 17:14:43 10° W 17:17:21 16° SW 17:19:59 10° S daylight
19 May - 08:50:20 10° SW 08:54:34 62° SE 08:58:45 10° ENE visible
19 May - 10:31:28 10° W 10:35:18 31° NNW 10:39:07 10° NE daylight
19 May - 12:13:40 10° NW 12:16:46 19° N 12:19:51 10° NE daylight
19 May - 13:54:31 10° NW 13:58:16 30° NNE 14:01:58 10° E daylight
19 May - 15:34:52 10° WNW 15:39:02 68° SW 15:43:11 10° SE daylight
20 May - 07:13:44 10° SSE 07:16:15 15° SE 07:18:45 10° E visible
20 May - 08:52:01 10° WSW 08:56:19 86° NW 09:00:35 10° NE visible
20 May - 10:33:41 10° WNW 10:37:17 26° NNW 10:40:51 10° NE daylight
20 May - 12:15:41 10° NW 12:18:50 20° N 12:21:58 10° NE daylight
20 May - 13:56:15 10° NW 14:00:12 38° NNE 14:04:08 10° E daylight
20 May - 15:36:47 10° WNW 15:40:45 42° SW 15:44:43 10° SSE daylight
21 May - 07:14:21 10° S 07:17:51 24° SE 07:21:20 10° E visible
21 May - 08:53:54 10° WSW 08:58:09 59° NNW 09:02:21 10° NE visible
21 May - 10:35:56 10° WNW 10:39:18 22° N 10:42:39 10° NE daylight
21 May - 12:17:36 10° NW 12:20:53 21° N 12:24:10 10° ENE daylight
21 May - 13:57:58 10° NW 14:02:06 53° NNE 14:06:12 10° ESE daylight
21 May - 15:38:54 10° WNW 15:42:25 26° SW 15:45:56 10° SSE daylight
22 May - 07:15:29 10° SSW 07:19:29 38° SE 07:23:28 10° ENE visible
22 May - 08:55:56 10° W 09:00:01 42° NNW 09:04:04 10° NE visible
22 May - 10:38:08 10° NW 10:41:21 20° N 10:44:32 10° NE daylight
22 May - 12:19:24 10° NW 12:22:55 24° NNE 12:26:24 10° ENE daylight
22 May - 13:59:42 10° NW 14:03:55 79° NNE 14:08:06 10° ESE daylight
22 May - 15:41:21 10° W 15:44:00 16° SW 15:46:40 10° S daylight
23 May - 07:16:56 10° SW 07:21:11 61° SE 07:25:25 10° ENE visible
23 May - 08:58:04 10° W 09:01:56 32° NNW 09:05:47 10° NE visible
23 May - 10:40:16 10° NW 10:43:24 20° N 10:46:31 10° NE daylight
23 May - 12:21:09 10° NW 12:24:54 30° NNE 12:28:37 10° E daylight
23 May - 14:01:30 10° WNW 14:05:42 68° SW 14:09:50 10° SE daylight
